,,,PA_Meas_PMT16A,,PR_Meas_QMR101_102,,RH_Meas_QMH101,,SR_Meas_QMS101,,TA_Meas_QMH101,,GenWind,,GenWind,
date,time,status,PA,status,PR,status,RH,status,SR,status,TA,status,DirAvg,status,SpdAvg,
2009-08-18, 00:00:04,VALID,1005.91,VALID,0,VALID,94.2472,VALID,0,VALID,24.2291,VALID,31,VALID,0,
2009-08-18, 00:01:04,VALID,1005.89,VALID,0,VALID,94.293,VALID,0,VALID,24.2273,VALID,31,VALID,0,
2009-08-18, 00:02:04,VALID,1005.88,VALID,0,VALID,94.2777,VALID,0,VALID,24.2291,VALID,31,VALID,0,
2009-08-18, 00:03:04,VALID,1005.85,VALID,0,VALID,94.3006,VALID,0,VALID,24.2097,VALID,31,VALID,0,
2009-08-18, 00:04:04,VALID,1005.83,VALID,0,VALID,94.3387,VALID,0,VALID,24.2681,VALID,25,VALID,0,
2009-08-18, 00:05:04,VALID,1005.81,VALID,0,VALID,94.3845,VALID,0,VALID,24.307,VALID,16,VALID,0.767187,
2009-08-18, 00:06:04,VALID,1005.79,VALID,0,VALID,94.4379,VALID,0,VALID,24.3849,VALID,11,VALID,0.444922,
2009-08-18, 00:07:04,VALID,1005.79,VALID,0,VALID,94.4684,VALID,0,VALID,24.4238,VALID,27,VALID,0.579687,
2009-08-18, 00:08:04,VALID,1005.79,VALID,0,VALID,94.4608,VALID,0,VALID,24.4628,VALID,26,VALID,0.553906,
2009-08-18, 00:09:04,VALID,1005.78,VALID,0,VALID,94.3769,VALID,0,VALID,24.4628,VALID,26,VALID,0.553906,
2009-08-18, 00:10:04,VALID,1005.78,VALID,0,VALID,94.3235,VALID,0,VALID,24.4804,VALID,35,VALID,0.546094,
2009-08-18, 00:11:04,VALID,1005.74,VALID,0,VALID,94.2396,VALID,0,VALID,24.4804,VALID,35,VALID,0.4,
2009-08-18, 00:12:04,VALID,1005.74,VALID,0,VALID,94.1633,VALID,0,VALID,24.4998,VALID,8,VALID,0.551953,
2009-08-18, 00:13:04,VALID,1005.75,VALID,0,VALID,94.1709,VALID,0,VALID,24.5796,VALID,5,VALID,0.323047,
2009-08-18, 00:14:04,VALID,1005.67,VALID,0,VALID,94.148,VALID,0,VALID,24.5796,VALID,5,VALID,0.373828,
2009-08-18, 00:15:04,VALID,1005.7,VALID,0,VALID,94.087,VALID,0,VALID,24.6185,VALID,7,VALID,0.410547,
2009-08-18, 00:16:04,VALID,1005.66,VALID,0,VALID,94.0336,VALID,0,VALID,24.6574,VALID,8,VALID,0.273047,
2009-08-18, 00:17:04,VALID,1005.64,VALID,0,VALID,93.9573,VALID,0,VALID,24.6964,VALID,8,VALID,0.65,
2009-08-18, 00:18:04,VALID,1005.63,VALID,0,VALID,93.9191,VALID,0,VALID,24.7548,VALID,15,VALID,0.78125,
2009-08-18, 00:19:04,VALID,1005.61,VALID,0,VALID,93.7437,VALID,0,VALID,24.8132,VALID,15,VALID,0.423438,
2009-08-18, 00:20:04,VALID,1005.61,VALID,0,VALID,93.2097,VALID,0,VALID,24.7743,VALID,15,VALID,0.407813,
2009-08-18, 00:21:04,VALID,1005.58,VALID,0,VALID,92.9655,VALID,0,VALID,24.7353,VALID,15,VALID,0.30625,
2009-08-18, 00:22:04,VALID,1005.54,VALID,0,VALID,92.9503,VALID,0,VALID,24.6964,VALID,15,VALID,0.505469,
2009-08-18, 00:23:04,VALID,1005.52,VALID,0,VALID,92.935,VALID,0,VALID,24.6556,VALID,15,VALID,0.289063,
2009-08-18, 00:24:04,VALID,1005.48,VALID,0,VALID,92.9274,VALID,0,VALID,24.638,VALID,15,VALID,0.299219,
2009-08-18, 00:25:04,VALID,1005.45,VALID,0,VALID,92.9884,VALID,0,VALID,24.599,VALID,15,VALID,0.408203,
2009-08-18, 00:26:04,VALID,1005.43,VALID,0,VALID,93.08,VALID,0,VALID,24.5796,VALID,15,VALID,0.614062,
2009-08-18, 00:27:04,VALID,1005.45,VALID,0,VALID,93.1715,VALID,0,VALID,24.5601,VALID,15,VALID,0.345703,
2009-08-18, 00:28:04,VALID,1005.43,VALID,0,VALID,93.3088,VALID,0,VALID,24.599,VALID,359,VALID,0.61875,
2009-08-18, 00:29:04,VALID,1005.43,VALID,0,VALID,93.2631,VALID,0,VALID,24.5972,VALID,359,VALID,0.723437,
2009-08-18, 00:30:04,VALID,1005.43,VALID,0,VALID,93.2325,VALID,0,VALID,24.638,VALID,354,VALID,0.656641,
2009-08-18, 00:31:04,VALID,1005.41,VALID,0,VALID,93.0876,VALID,0,VALID,24.638,VALID,351,VALID,0.302734,
2009-08-18, 00:32:04,VALID,1005.42,VALID,0,VALID,92.9426,VALID,0,VALID,24.6574,VALID,351,VALID,0.476563,
2009-08-18, 00:33:04,VALID,1005.4,VALID,0,VALID,92.7977,VALID,0,VALID,24.6361,VALID,351,VALID,0.439063,
2009-08-18, 00:34:04,VALID,1005.38,VALID,0,VALID,92.6604,VALID,0,VALID,24.6964,VALID,351,VALID,0.3625,
2009-08-18, 00:35:04,VALID,1005.37,VALID,0,VALID,92.5765,VALID,0,VALID,24.7159,VALID,352,VALID,0.629687,
2009-08-18, 00:36:04,VALID,1005.35,VALID,0,VALID,92.5002,VALID,0,VALID,24.7761,VALID,353,VALID,0.367969,
2009-08-18, 00:37:04,VALID,1005.39,VALID,0,VALID,92.1874,VALID,0,VALID,24.7937,VALID,353,VALID,0.596484,
2009-08-18, 00:38:04,VALID,1005.37,VALID,0,VALID,91.8975,VALID,0,VALID,24.8132,VALID,353,VALID,0.596094,
2009-08-18, 00:39:04,VALID,1005.36,VALID,0,VALID,91.6305,VALID,0,VALID,24.8132,VALID,353,VALID,0.430469,
2009-08-18, 00:40:04,VALID,1005.36,VALID,0,VALID,91.3864,VALID,0,VALID,24.7724,VALID,353,VALID,0.423828,
2009-08-18, 00:41:04,VALID,1005.36,VALID,0,VALID,91.3711,VALID,0,VALID,24.7724,VALID,353,VALID,0.213672,
2009-08-18, 00:42:04,VALID,1005.35,VALID,0,VALID,91.4016,VALID,0,VALID,24.7743,VALID,353,VALID,0.380469,
2009-08-18, 00:43:04,VALID,1005.36,VALID,0,VALID,91.4169,VALID,0,VALID,24.6945,VALID,360,VALID,0.416406,
2009-08-18, 00:44:04,VALID,1005.32,VALID,0,VALID,91.5695,VALID,0,VALID,24.6574,VALID,1,VALID,0.494531,
2009-08-18, 00:45:04,VALID,1005.32,VALID,0,VALID,91.7373,VALID,0,VALID,24.599,VALID,1,VALID,0.530469,
2009-08-18, 00:46:04,VALID,1005.35,VALID,0,VALID,91.8594,VALID,0,VALID,24.5601,VALID,1,VALID,0.453516,
2009-08-18, 00:47:04,VALID,1005.35,VALID,0,VALID,91.9738,VALID,0,VALID,24.4822,VALID,1,VALID,0.641797,
2009-08-18, 00:48:04,VALID,1005.35,VALID,0,VALID,92.1187,VALID,0,VALID,24.4628,VALID,11,VALID,0.527344,
2009-08-18, 00:49:04,VALID,1005.37,VALID,0,VALID,92.2255,VALID,0,VALID,24.4238,VALID,11,VALID,0.415234,
2009-08-18, 00:50:04,VALID,1005.34,VALID,0,VALID,92.3629,VALID,0,VALID,24.4043,VALID,11,VALID,0.413672,
2009-08-18, 00:51:04,VALID,1005.32,VALID,0,VALID,92.4391,VALID,0,VALID,24.3654,VALID,32,VALID,0.762109,
2009-08-18, 00:52:04,VALID,1005.3,VALID,0,VALID,92.5688,VALID,0,VALID,24.3673,VALID,29,VALID,0.441406,
2009-08-18, 00:53:04,VALID,1005.33,VALID,0,VALID,92.5383,VALID,0,VALID,24.3052,VALID,8,VALID,0.721875,
2009-08-18, 00:54:04,VALID,1005.31,VALID,0,VALID,92.5078,VALID,0,VALID,24.3478,VALID,6,VALID,0.789844,
2009-08-18, 00:55:04,VALID,1005.32,VALID,0,VALID,92.4086,VALID,0,VALID,24.3459,VALID,359,VALID,0.614062,
2009-08-18, 00:56:04,VALID,1005.28,VALID,0,VALID,92.2561,VALID,0,VALID,24.3459,VALID,19,VALID,0.90625,
2009-08-18, 00:57:04,VALID,1005.28,VALID,0,VALID,92.1035,VALID,0,VALID,24.3441,VALID,357,VALID,1.13203,
2009-08-18, 00:58:04,VALID,1005.25,VALID,0,VALID,91.867,VALID,0,VALID,24.3654,VALID,357,VALID,0.765234,
2009-08-18, 00:59:04,VALID,1005.24,VALID,0,VALID,91.661,VALID,0,VALID,24.3636,VALID,354,VALID,0.444531,
2009-08-18, 01:00:04,VALID,1005.21,VALID,0,VALID,91.6152,VALID,0,VALID,24.3849,VALID,353,VALID,0.879297,
2009-08-18, 01:01:04,VALID,1005.2,VALID,0,VALID,91.5542,VALID,0,VALID,24.4043,VALID,338,VALID,0.897656,
2009-08-18, 01:02:04,VALID,1005.15,VALID,0,VALID,91.4016,VALID,0,VALID,24.4433,VALID,347,VALID,0.760156,
2009-08-18, 01:03:04,VALID,1005.13,VALID,0,VALID,91.1956,VALID,0,VALID,24.4628,VALID,354,VALID,0.761719,
2009-08-18, 01:04:04,VALID,1005.13,VALID,0,VALID,91.0812,VALID,0,VALID,24.523,VALID,2,VALID,0.493359,
2009-08-18, 01:05:04,VALID,1005.11,VALID,0,VALID,90.9897,VALID,0,VALID,24.4998,VALID,2,VALID,0.171094,
2009-08-18, 01:06:04,VALID,1005.1,VALID,0,VALID,90.9057,VALID,0,VALID,24.5212,VALID,3,VALID,0.290234,
2009-08-18, 01:07:04,VALID,1005.1,VALID,0,VALID,90.8676,VALID,0,VALID,24.5193,VALID,24,VALID,0.786328,
2009-08-18, 01:08:04,VALID,1005.1,VALID,0,VALID,90.776,VALID,0,VALID,24.5388,VALID,24,VALID,0.139844,
2009-08-18, 01:09:04,VALID,1005.05,VALID,0,VALID,90.6998,VALID,0,VALID,24.5601,VALID,18,VALID,0.294922,
2009-08-18, 01:10:04,VALID,1005.04,VALID,0,VALID,90.7226,VALID,0,VALID,24.5406,VALID,18,VALID,0.0015625,
2009-08-18, 01:11:04,VALID,1005.02,VALID,0,VALID,90.8066,VALID,0,VALID,24.5212,VALID,18,VALID,0.329688,
2009-08-18, 01:12:04,VALID,1005.01,VALID,0,VALID,91.0583,VALID,0,VALID,24.5017,VALID,18,VALID,0.315234,
2009-08-18, 01:13:04,VALID,1005,VALID,0,VALID,91.1804,VALID,0,VALID,24.422,VALID,18,VALID,0.351172,
2009-08-18, 01:14:04,VALID,1004.98,VALID,0,VALID,91.3101,VALID,0,VALID,24.4238,VALID,18,VALID,0.128516,
2009-08-18, 01:15:04,VALID,1005,VALID,0,VALID,91.4855,VALID,0,VALID,24.3636,VALID,18,VALID,0,
2009-08-18, 01:16:04,VALID,1004.99,VALID,0,VALID,91.6229,VALID,0,VALID,24.3459,VALID,18,VALID,0,
2009-08-18, 01:17:04,VALID,1004.96,VALID,0,VALID,91.7373,VALID,0,VALID,24.307,VALID,18,VALID,0,
2009-08-18, 01:18:04,VALID,1004.97,VALID,0,VALID,91.9051,VALID,0,VALID,24.2681,VALID,18,VALID,0,
2009-08-18, 01:19:04,VALID,1004.95,VALID,0,VALID,92.0196,VALID,0,VALID,24.2291,VALID,18,VALID,0,
2009-08-18, 01:20:04,VALID,1004.96,VALID,0,VALID,92.0806,VALID,0,VALID,24.1707,VALID,18,VALID,0,
2009-08-18, 01:21:04,VALID,1004.94,VALID,0,VALID,92.2484,VALID,0,VALID,24.1123,VALID,18,VALID,0,
2009-08-18, 01:22:04,VALID,1004.9,VALID,0,VALID,92.462,VALID,0,VALID,24.0716,VALID,18,VALID,0,
2009-08-18, 01:23:04,VALID,1004.9,VALID,0,VALID,92.6604,VALID,0,VALID,24.0539,VALID,18,VALID,0,
2009-08-18, 01:24:04,VALID,1004.87,VALID,0,VALID,92.7977,VALID,0,VALID,24.015,VALID,18,VALID,0,
2009-08-18, 01:25:04,VALID,1004.87,VALID,0,VALID,92.9655,VALID,0,VALID,23.9548,VALID,18,VALID,0,
2009-08-18, 01:26:04,VALID,1004.85,VALID,0,VALID,93.1181,VALID,0,VALID,23.9566,VALID,18,VALID,0,
2009-08-18, 01:27:04,VALID,1004.84,VALID,0,VALID,93.2707,VALID,0,VALID,23.9159,VALID,18,VALID,0,
2009-08-18, 01:28:04,VALID,1004.81,VALID,0,VALID,93.3622,VALID,0,VALID,23.9177,VALID,18,VALID,0,
2009-08-18, 01:29:04,VALID,1004.81,VALID,0,VALID,93.408,VALID,0,VALID,23.8787,VALID,16,VALID,0,
2009-08-18, 01:30:04,VALID,1004.8,VALID,0,VALID,93.5148,VALID,0,VALID,23.8593,VALID,16,VALID,0,
2009-08-18, 01:31:04,VALID,1004.83,VALID,0,VALID,93.5987,VALID,0,VALID,23.8203,VALID,16,VALID,0,
2009-08-18, 01:32:04,VALID,1004.8,VALID,0,VALID,93.6598,VALID,0,VALID,23.8009,VALID,16,VALID,0,
2009-08-18, 01:33:04,VALID,1004.78,VALID,0,VALID,93.7513,VALID,0,VALID,23.7619,VALID,16,VALID,0,
2009-08-18, 01:34:04,VALID,1004.78,VALID,0,VALID,93.8505,VALID,0,VALID,23.7407,VALID,16,VALID,0,
2009-08-18, 01:35:04,VALID,1004.77,VALID,0,VALID,93.942,VALID,0,VALID,23.7407,VALID,16,VALID,0,
2009-08-18, 01:36:04,VALID,1004.77,VALID,0,VALID,94.0336,VALID,0,VALID,23.7407,VALID,16,VALID,0,
2009-08-18, 01:37:04,VALID,1004.77,VALID,0,VALID,94.1022,VALID,0,VALID,23.7619,VALID,16,VALID,0,
2009-08-18, 01:38:04,VALID,1004.76,VALID,0,VALID,94.1556,VALID,0,VALID,23.7212,VALID,16,VALID,0,
2009-08-18, 01:39:04,VALID,1004.76,VALID,0,VALID,94.1785,VALID,0,VALID,23.7017,VALID,16,VALID,0,
2009-08-18, 01:40:04,VALID,1004.75,VALID,0,VALID,94.2472,VALID,0,VALID,23.6823,VALID,16,VALID,0,
2009-08-18, 01:41:04,VALID,1004.74,VALID,0,VALID,94.293,VALID,0,VALID,23.7035,VALID,16,VALID,0,
2009-08-18, 01:42:04,VALID,1004.72,VALID,0,VALID,94.3464,VALID,0,VALID,23.7035,VALID,16,VALID,0,
2009-08-18, 01:43:04,VALID,1004.68,VALID,0,VALID,94.3692,VALID,0,VALID,23.6841,VALID,16,VALID,0,
2009-08-18, 01:44:04,VALID,1004.7,VALID,0,VALID,94.415,VALID,0,VALID,23.6628,VALID,16,VALID,0,
2009-08-18, 01:45:04,VALID,1004.7,VALID,0,VALID,94.4303,VALID,0,VALID,23.6452,VALID,16,VALID,0,
2009-08-18, 01:46:04,VALID,1004.73,VALID,0,VALID,94.4608,VALID,0.100563,VALID,23.6646,VALID,16,VALID,0.207813,
2009-08-18, 01:47:04,VALID,1004.74,VALID,0,VALID,94.5218,VALID,0.100563,VALID,23.6841,VALID,15,VALID,0.434375,
2009-08-18, 01:48:04,VALID,1004.71,VALID,0,VALID,94.56,VALID,0,VALID,23.6628,VALID,14,VALID,0.469141,
2009-08-18, 01:49:04,VALID,1004.74,VALID,0,VALID,94.6057,VALID,0,VALID,23.6628,VALID,14,VALID,0.291797,
2009-08-18, 01:50:04,VALID,1004.74,VALID,0,VALID,94.5905,VALID,0,VALID,23.6841,VALID,14,VALID,0.364062,
2009-08-18, 01:51:04,VALID,1004.71,VALID,0,VALID,94.6363,VALID,0,VALID,23.6628,VALID,14,VALID,0.236328,
2009-08-18, 01:52:04,VALID,1004.74,VALID,0,VALID,94.6363,VALID,0.100563,VALID,23.6434,VALID,14,VALID,0.120312,
2009-08-18, 01:53:04,VALID,1004.75,VALID,0,VALID,94.6591,VALID,0,VALID,23.6646,VALID,14,VALID,0.325391,
2009-08-18, 01:54:04,VALID,1004.75,VALID,0,VALID,94.6744,VALID,0,VALID,23.6646,VALID,14,VALID,0.403516,
2009-08-18, 01:55:04,VALID,1004.73,VALID,0,VALID,94.7125,VALID,0,VALID,23.6434,VALID,14,VALID,0.45625,
2009-08-18, 01:56:04,VALID,1004.74,VALID,0,VALID,94.7202,VALID,0,VALID,23.6434,VALID,14,VALID,0.298047,
2009-08-18, 01:57:04,VALID,1004.74,VALID,0,VALID,94.7278,VALID,0.100563,VALID,23.6628,VALID,14,VALID,0.277344,
2009-08-18, 01:58:04,VALID,1004.7,VALID,0,VALID,94.7888,VALID,0,VALID,23.6841,VALID,14,VALID,0.403516,
2009-08-18, 01:59:04,VALID,1004.7,VALID,0,VALID,94.8041,VALID,0.100563,VALID,23.6823,VALID,14,VALID,0.471484,
2009-08-18, 02:00:04,VALID,1004.63,VALID,0,VALID,94.8117,VALID,0,VALID,23.6646,VALID,13,VALID,0.592188,
2009-08-18, 02:01:04,VALID,1004.62,VALID,0,VALID,94.8194,VALID,0,VALID,23.6841,VALID,345,VALID,0.487109,
2009-08-18, 02:02:04,VALID,1004.56,VALID,0,VALID,94.8422,VALID,0,VALID,23.6628,VALID,345,VALID,0.354297,
2009-08-18, 02:03:04,VALID,1004.56,VALID,0,VALID,94.8346,VALID,0,VALID,23.6646,VALID,345,VALID,0.305078,
2009-08-18, 02:04:04,VALID,1004.54,VALID,0,VALID,94.8346,VALID,0,VALID,23.6434,VALID,345,VALID,0.278125,
2009-08-18, 02:05:04,VALID,1004.52,VALID,0,VALID,94.8422,VALID,0,VALID,23.6646,VALID,345,VALID,0.231641,
2009-08-18, 02:06:04,VALID,1004.51,VALID,0,VALID,94.8499,VALID,0.100563,VALID,23.6434,VALID,345,VALID,0.250391,
2009-08-18, 02:07:04,VALID,1004.48,VALID,0,VALID,94.8651,VALID,0,VALID,23.6452,VALID,345,VALID,0.254297,
2009-08-18, 02:08:04,VALID,1004.45,VALID,0,VALID,94.8499,VALID,0,VALID,23.6239,VALID,345,VALID,0.200391,
2009-08-18, 02:09:04,VALID,1004.43,VALID,0,VALID,94.8575,VALID,0,VALID,23.6257,VALID,345,VALID,0.277734,
2009-08-18, 02:10:04,VALID,1004.42,VALID,0,VALID,94.888,VALID,0.100563,VALID,23.6044,VALID,345,VALID,0.214844,
2009-08-18, 02:11:04,VALID,1004.42,VALID,0,VALID,94.888,VALID,0,VALID,23.6044,VALID,345,VALID,0,
2009-08-18, 02:12:04,VALID,1004.42,VALID,0,VALID,94.8956,VALID,0.100563,VALID,23.585,VALID,345,VALID,0,
2009-08-18, 02:13:04,VALID,1004.42,VALID,0,VALID,94.8956,VALID,0.100563,VALID,23.585,VALID,345,VALID,0,
2009-08-18, 02:14:04,VALID,1004.4,VALID,0,VALID,94.9109,VALID,0,VALID,23.6062,VALID,345,VALID,0,
2009-08-18, 02:15:05,VALID,1004.41,VALID,0,VALID,94.9185,VALID,0,VALID,23.5655,VALID,345,VALID,0.361719,
2009-08-18, 02:16:05,VALID,1004.42,VALID,0,VALID,94.9185,VALID,0.100563,VALID,23.546,VALID,345,VALID,0.211719,
2009-08-18, 02:17:05,VALID,1004.41,VALID,0,VALID,94.9185,VALID,0,VALID,23.5478,VALID,345,VALID,0.2625,
2009-08-18, 02:18:05,VALID,1004.39,VALID,0,VALID,94.9262,VALID,0,VALID,23.5496,VALID,345,VALID,0.352344,
2009-08-18, 02:19:05,VALID,1004.37,VALID,0,VALID,94.9414,VALID,0,VALID,23.5071,VALID,345,VALID,0,
2009-08-18, 02:20:05,VALID,1004.39,VALID,0,VALID,94.9338,VALID,0,VALID,23.5089,VALID,345,VALID,0,
2009-08-18, 02:21:05,VALID,1004.39,VALID,0,VALID,94.9414,VALID,0,VALID,23.5089,VALID,345,VALID,0,
2009-08-18, 02:22:05,VALID,1004.37,VALID,0,VALID,94.9796,VALID,0,VALID,23.4682,VALID,345,VALID,0,
2009-08-18, 02:23:05,VALID,1004.36,VALID,0,VALID,94.9643,VALID,0,VALID,23.5089,VALID,345,VALID,0,
2009-08-18, 02:24:05,VALID,1004.39,VALID,0,VALID,94.9719,VALID,0.100563,VALID,23.4487,VALID,345,VALID,0,
2009-08-18, 02:25:05,VALID,1004.35,VALID,0,VALID,95.0024,VALID,0,VALID,23.4487,VALID,345,VALID,0,
2009-08-18, 02:26:05,VALID,1004.38,VALID,0,VALID,95.033,VALID,0,VALID,23.4487,VALID,345,VALID,0,
2009-08-18, 02:27:05,VALID,1004.38,VALID,0,VALID,95.033,VALID,0.100563,VALID,23.4487,VALID,345,VALID,0,
2009-08-18, 02:28:05,VALID,1004.4,VALID,0,VALID,95.0253,VALID,0,VALID,23.3904,VALID,345,VALID,0,
2009-08-18, 02:29:05,VALID,1004.36,VALID,0,VALID,95.033,VALID,0,VALID,23.3921,VALID,345,VALID,0,
2009-08-18, 02:30:05,VALID,1004.36,VALID,0,VALID,95.0558,VALID,0,VALID,23.4116,VALID,345,VALID,0,
2009-08-18, 02:31:05,VALID,1004.39,VALID,0,VALID,95.0787,VALID,0,VALID,23.4116,VALID,345,VALID,0,
2009-08-18, 02:32:05,VALID,1004.33,VALID,0,VALID,95.0864,VALID,0,VALID,23.4311,VALID,345,VALID,0,
2009-08-18, 02:33:05,VALID,1004.3,VALID,0,VALID,95.1245,VALID,0.100563,VALID,23.4311,VALID,345,VALID,0,
2009-08-18, 02:34:05,VALID,1004.31,VALID,0,VALID,95.1398,VALID,0.100563,VALID,23.4098,VALID,345,VALID,0,
2009-08-18, 02:35:05,VALID,1004.32,VALID,0,VALID,95.1474,VALID,0,VALID,23.4487,VALID,345,VALID,0,
2009-08-18, 02:36:05,VALID,1004.29,VALID,0,VALID,95.155,VALID,0,VALID,23.4098,VALID,345,VALID,0,
2009-08-18, 02:37:05,VALID,1004.32,VALID,0,VALID,95.1627,VALID,0.100563,VALID,23.3709,VALID,345,VALID,0,
2009-08-18, 02:38:05,VALID,1004.3,VALID,0,VALID,95.1398,VALID,0,VALID,23.332,VALID,345,VALID,0,
2009-08-18, 02:39:05,VALID,1004.28,VALID,0,VALID,95.1245,VALID,0,VALID,23.3125,VALID,345,VALID,0,
2009-08-18, 02:40:05,VALID,1004.28,VALID,0,VALID,95.1398,VALID,0,VALID,23.3125,VALID,345,VALID,0,
2009-08-18, 02:41:05,VALID,1004.29,VALID,0,VALID,95.155,VALID,0,VALID,23.2931,VALID,345,VALID,0,
2009-08-18, 02:42:05,VALID,1004.27,VALID,0,VALID,95.1627,VALID,0,VALID,23.2736,VALID,345,VALID,0,
2009-08-18, 02:43:05,VALID,1004.24,VALID,0,VALID,95.1474,VALID,0.100563,VALID,23.2736,VALID,345,VALID,0,
2009-08-18, 02:44:05,VALID,1004.25,VALID,0,VALID,95.1627,VALID,0,VALID,23.2541,VALID,345,VALID,0,
2009-08-18, 02:45:05,VALID,1004.26,VALID,0,VALID,95.1779,VALID,0.100563,VALID,23.2541,VALID,345,VALID,0,
2009-08-18, 02:46:05,VALID,1004.25,VALID,0,VALID,95.1855,VALID,0,VALID,23.2736,VALID,345,VALID,0,
2009-08-18, 02:47:05,VALID,1004.23,VALID,0,VALID,95.1932,VALID,0,VALID,23.2541,VALID,345,VALID,0,
2009-08-18, 02:48:05,VALID,1004.24,VALID,0,VALID,95.2084,VALID,0.100563,VALID,23.2541,VALID,345,VALID,0,
2009-08-18, 02:49:05,VALID,1004.2,VALID,0,VALID,95.1932,VALID,0.100563,VALID,23.2329,VALID,345,VALID,0,
2009-08-18, 02:50:05,VALID,1004.22,VALID,0,VALID,95.2084,VALID,0.100563,VALID,23.2541,VALID,345,VALID,0,
2009-08-18, 02:51:05,VALID,1004.2,VALID,0,VALID,95.2161,VALID,0.100563,VALID,23.2559,VALID,345,VALID,0,
2009-08-18, 02:52:05,VALID,1004.2,VALID,0,VALID,95.2237,VALID,0.100563,VALID,23.1957,VALID,345,VALID,0,
2009-08-18, 02:53:05,VALID,1004.19,VALID,0,VALID,95.2237,VALID,0,VALID,23.1763,VALID,345,VALID,0,
2009-08-18, 02:54:05,VALID,1004.17,VALID,0,VALID,95.2237,VALID,0.100563,VALID,23.1551,VALID,345,VALID,0,
2009-08-18, 02:55:05,VALID,1004.19,VALID,0,VALID,95.2084,VALID,0.100563,VALID,23.1568,VALID,345,VALID,0,
2009-08-18, 02:56:05,VALID,1004.23,VALID,0,VALID,95.2161,VALID,0.100563,VALID,23.178,VALID,345,VALID,0,
2009-08-18, 02:57:05,VALID,1004.21,VALID,0,VALID,95.2389,VALID,0.100563,VALID,23.1957,VALID,345,VALID,0,
2009-08-18, 02:58:05,VALID,1004.24,VALID,0,VALID,95.2771,VALID,0,VALID,23.2364,VALID,345,VALID,0,
2009-08-18, 02:59:05,VALID,1004.22,VALID,0,VALID,95.3076,VALID,0,VALID,23.2559,VALID,345,VALID,0,
2009-08-18, 03:00:05,VALID,1004.22,VALID,0,VALID,95.3152,VALID,0,VALID,23.2948,VALID,345,VALID,0,
2009-08-18, 03:01:05,VALID,1004.23,VALID,0,VALID,95.3305,VALID,0,VALID,23.3143,VALID,345,VALID,0,
2009-08-18, 03:02:05,VALID,1004.24,VALID,0,VALID,95.3534,VALID,0,VALID,23.3337,VALID,345,VALID,0,
2009-08-18, 03:03:05,VALID,1004.24,VALID,0,VALID,95.3457,VALID,0,VALID,23.3143,VALID,345,VALID,0,
2009-08-18, 03:04:05,VALID,1004.25,VALID,0,VALID,95.3457,VALID,0,VALID,23.2948,VALID,345,VALID,0,
2009-08-18, 03:05:05,VALID,1004.28,VALID,0,VALID,95.3305,VALID,0,VALID,23.2364,VALID,345,VALID,0,
2009-08-18, 03:06:05,VALID,1004.29,VALID,0,VALID,95.3076,VALID,0,VALID,23.1975,VALID,345,VALID,0,
2009-08-18, 03:07:05,VALID,1004.27,VALID,0,VALID,95.2923,VALID,0,VALID,23.178,VALID,345,VALID,0,
2009-08-18, 03:08:05,VALID,1004.29,VALID,0,VALID,95.3152,VALID,0,VALID,23.178,VALID,345,VALID,0,
2009-08-18, 03:09:05,VALID,1004.26,VALID,0,VALID,95.2923,VALID,0,VALID,23.1586,VALID,345,VALID,0,
2009-08-18, 03:10:05,VALID,1004.24,VALID,0,VALID,95.2771,VALID,0,VALID,23.1603,VALID,345,VALID,0,
2009-08-18, 03:11:05,VALID,1004.23,VALID,0,VALID,95.2771,VALID,0,VALID,23.1002,VALID,345,VALID,0,
2009-08-18, 03:12:05,VALID,1004.2,VALID,0,VALID,95.2695,VALID,0,VALID,23.0807,VALID,345,VALID,0,
2009-08-18, 03:13:05,VALID,1004.2,VALID,0,VALID,95.2542,VALID,0.100563,VALID,23.0595,VALID,345,VALID,0,
2009-08-18, 03:14:05,VALID,1004.21,VALID,0,VALID,95.2466,VALID,0,VALID,22.9994,VALID,345,VALID,0,
2009-08-18, 03:15:05,VALID,1004.22,VALID,0,VALID,95.2389,VALID,0.100563,VALID,23.0206,VALID,345,VALID,0,
2009-08-18, 03:16:05,VALID,1004.22,VALID,0,VALID,95.2466,VALID,0.100563,VALID,23.0189,VALID,345,VALID,0,
2009-08-18, 03:17:05,VALID,1004.22,VALID,0,VALID,95.2618,VALID,0,VALID,23.0401,VALID,345,VALID,0,
2009-08-18, 03:18:05,VALID,1004.21,VALID,0,VALID,95.2771,VALID,0.100563,VALID,22.9994,VALID,345,VALID,0,
2009-08-18, 03:19:05,VALID,1004.24,VALID,0,VALID,95.2771,VALID,0.100563,VALID,23.0206,VALID,345,VALID,0,
2009-08-18, 03:20:05,VALID,1004.22,VALID,0,VALID,95.2847,VALID,0.100563,VALID,23.0012,VALID,345,VALID,0,
2009-08-18, 03:21:05,VALID,1004.23,VALID,0,VALID,95.2695,VALID,0.100563,VALID,23.0012,VALID,345,VALID,0,
2009-08-18, 03:22:05,VALID,1004.22,VALID,0,VALID,95.2771,VALID,0.100563,VALID,22.941,VALID,345,VALID,0,
2009-08-18, 03:23:05,VALID,1004.24,VALID,0,VALID,95.2695,VALID,0.100563,VALID,22.9428,VALID,345,VALID,0,
2009-08-18, 03:24:05,VALID,1004.25,VALID,0,VALID,95.2771,VALID,0.100563,VALID,22.9216,VALID,345,VALID,0,
2009-08-18, 03:25:05,VALID,1004.24,VALID,0,VALID,95.2847,VALID,0.100563,VALID,22.9428,VALID,345,VALID,0,
2009-08-18, 03:26:05,VALID,1004.27,VALID,0,VALID,95.2847,VALID,0.100563,VALID,22.9021,VALID,345,VALID,0,
2009-08-18, 03:27:05,VALID,1004.24,VALID,0,VALID,95.2771,VALID,0.100563,VALID,22.8827,VALID,345,VALID,0,
2009-08-18, 03:28:05,VALID,1004.24,VALID,0,VALID,95.2923,VALID,0,VALID,22.8861,VALID,345,VALID,0,
2009-08-18, 03:29:05,VALID,1004.24,VALID,0,VALID,95.3229,VALID,0,VALID,22.9056,VALID,345,VALID,0,
2009-08-18, 03:30:05,VALID,1004.19,VALID,0,VALID,95.3457,VALID,0,VALID,22.9428,VALID,345,VALID,0,
2009-08-18, 03:31:05,VALID,1004.17,VALID,0,VALID,95.3839,VALID,0,VALID,23.0029,VALID,345,VALID,0,
2009-08-18, 03:32:05,VALID,1004.16,VALID,0,VALID,95.4144,VALID,0,VALID,23.0418,VALID,345,VALID,0,
2009-08-18, 03:33:05,VALID,1004.12,VALID,0,VALID,95.4144,VALID,0,VALID,23.0224,VALID,345,VALID,0,
2009-08-18, 03:34:05,VALID,1004.09,VALID,0,VALID,95.4144,VALID,0,VALID,22.9622,VALID,345,VALID,0,
2009-08-18, 03:35:05,VALID,1004.11,VALID,0,VALID,95.3763,VALID,0,VALID,22.9428,VALID,345,VALID,0,
2009-08-18, 03:36:05,VALID,1004.07,VALID,0,VALID,95.4068,VALID,0,VALID,22.9834,VALID,346,VALID,0,
2009-08-18, 03:37:05,VALID,1004.08,VALID,0,VALID,95.4297,VALID,0,VALID,22.9834,VALID,346,VALID,0,
2009-08-18, 03:38:05,VALID,1004.04,VALID,0,VALID,95.4297,VALID,0,VALID,22.9834,VALID,346,VALID,0,
2009-08-18, 03:39:05,VALID,1004.03,VALID,0,VALID,95.4373,VALID,0,VALID,22.964,VALID,346,VALID,0,
2009-08-18, 03:40:05,VALID,1004.04,VALID,0,VALID,95.4373,VALID,0,VALID,22.964,VALID,346,VALID,0,
2009-08-18, 03:41:05,VALID,1004.04,VALID,0,VALID,95.4373,VALID,0,VALID,22.9445,VALID,346,VALID,0,
2009-08-18, 03:42:05,VALID,1004.01,VALID,0,VALID,95.4526,VALID,0,VALID,22.9251,VALID,346,VALID,0,
2009-08-18, 03:43:05,VALID,1003.97,VALID,0,VALID,95.422,VALID,0,VALID,22.9039,VALID,346,VALID,0,
2009-08-18, 03:44:05,VALID,1003.99,VALID,0,VALID,95.4526,VALID,0,VALID,22.9056,VALID,346,VALID,0,
2009-08-18, 03:45:05,VALID,1003.99,VALID,0,VALID,95.4449,VALID,0,VALID,22.8861,VALID,346,VALID,0,
2009-08-18, 03:46:05,VALID,1003.98,VALID,0,VALID,95.4449,VALID,0,VALID,22.8861,VALID,346,VALID,0,
2009-08-18, 03:47:05,VALID,1004,VALID,0,VALID,95.4602,VALID,0,VALID,22.8861,VALID,346,VALID,0,
2009-08-18, 03:48:05,VALID,1004.04,VALID,0,VALID,95.4831,VALID,0,VALID,22.9445,VALID,346,VALID,0,
2009-08-18, 03:49:05,VALID,1004.02,VALID,0,VALID,95.4983,VALID,0,VALID,22.9251,VALID,346,VALID,0,
2009-08-18, 03:50:05,VALID,1004.02,VALID,0,VALID,95.4754,VALID,0,VALID,22.9445,VALID,346,VALID,0,
2009-08-18, 03:51:05,VALID,1004.03,VALID,0,VALID,95.4983,VALID,0,VALID,22.9233,VALID,346,VALID,0,